Regional Weather Roundup
Issued by NWS Sioux Falls, SD

Home | Current Version | Previous Version | Text Only | Print | Product List | Glossary On
Versions: 1 2 3 4 5 6 7 8 9 10 11 12 13 14 15 16 17 18 19 20 21 22 23 24 25 26 27 28 29 30 31 32 33 34 35 36 37 38 39 40 41 42 43 44 45 46 47 48 49 50
000
ASUS43 KFSD 041602
RWRFSD

WEATHER ROUNDUP FOR SE SOUTH DAKOTA/SW MINNESOTA/NW IOWA
NATIONAL WEATHER SERVICE SIOUX FALLS SD
1100 AM CDT SAT JUL 04 2015

NOTE: "FAIR" INDICATES FEW OR NO CLOUDS BELOW 12,000 FEET WITH NO
SIGNIFICANT WEATHER AND OR OBSTRUCTIONS TO VISIBILITY.


SDZ038>040-050-052>070-041700-
SOUTHEAST SOUTH DAKOTA

CITY           SKY/WX    TMP DP  RH WIND       PRES   REMARKS
BROOKINGS      SUNNY     73  64  73 S12       29.96S
CHAMBERLAIN    NOT AVBL
HURON          MOSUNNY   76  67  73 SE10      29.87F
MADISON        FAIR      75  68  78 S10       29.95S
MITCHELL       MOSUNNY   76  68  76 S10       29.91F
SIOUX FALLS    MOSUNNY   75  65  70 S12       29.95F
WINNER         FAIR      82  61  48 S13       29.88F
YANKTON        MOSUNNY   75  64  69 SE7       29.93F
$$

MNZ071-072-080-081-089-090-097-098-041700-
SOUTHWEST MINNESOTA

CITY           SKY/WX    TMP DP  RH WIND       PRES   REMARKS
FAIRMONT       SUNNY     75  61  60 CALM      29.97S
JACKSON        SUNNY     75  63  64 SW8       29.99R
LUVERNE        SUNNY     75  64  69 SW6       29.98S
MARSHALL       SUNNY     79  63  57 SW10      29.94
MONTEVIDEO     SUNNY     81  72  74 W5        29.94S
PIPESTONE      SUNNY     73  64  73 SW7       29.97S
REDWOOD FALLS  SUNNY     79  65  62 W5        29.94S
TRACY          SUNNY     78  65  65 SW8       29.96S
WINDOM         SUNNY     77  63  61 S7        29.97S
WORTHINGTON    SUNNY     73  63  68 SW12      29.98S
$$

IAZ001>003-012>014-020>022-031-032-NEZ013-014-SDZ071-041700-
NORTHWEST IOWA

CITY           SKY/WX    TMP DP  RH WIND       PRES   REMARKS
DENISON        SUNNY     73  59  60 SW8       29.99F
ESTHERVILLE    SUNNY     74  64  71 SW6       29.98F
SIOUX CITY     SUNNY     75  65  70 VRB7      29.97F
SPENCER        SUNNY     77  60  55 W9        29.99S
$$

ABBREVIATIONS USED IN REMARKS
   TC - TEMPERATURE IN CELSIUS
  WCI - WIND CHILL INDEX
   HX - HEAT INDEX
  VSB - VISIBILITY




USA.gov is the U.S. government's official web portal to all federal, state and local government web resources and services.